OK1CBR-13 Weather Reports


time (UTC)temp
F
wind
direction
speed
knots
gust
knots
rain 1hr
in
rain 24hr
in
rain mn
in
humidity
%
barometer
mb
20260507034732 54 0.0 0.0 0.00 0.00 0.00 10 1009.3
20260507033732 54 0.0 0.0 0.00 0.00 0.00 10 1009.1
20260507032732 55 0.0 0.0 0.00 0.00 0.00 10 1009.1
20260507031732 55 0.0 0.0 0.00 0.00 0.00 10 1009.1
20260507030732 55 0.0 0.0 0.00 0.00 0.00 10 1009.1
20260507025732 55 0.0 0.0 0.00 0.00 0.00 10 1009.1
20260507024732 55 0.0 0.0 0.00 0.00 0.00 10 1009.1
20260507023732 55 0.0 0.0 0.00 0.00 0.00 10 1009.1
20260507022732 55 0.0 0.0 0.00 0.00 0.00 10 1009.0
20260507020732 55 0.0 0.0 0.00 0.00 0.00 10 1008.9
20260507015732 54 0.0 0.0 0.00 0.00 0.00 10 1008.9
20260507014732 55 0.0 0.0 0.00 0.00 0.00 10 1009.0
20260507013732 55 0.0 0.0 0.00 0.00 0.00 10 1008.8
20260507012732 55 0.0 0.0 0.00 0.00 0.00 10 1008.8
20260507011732 55 0.0 0.0 0.00 0.00 0.00 10 1008.7
20260507010732 55 0.0 0.0 0.00 0.00 0.00 10 1008.8
20260507005732 55 0.0 0.0 0.00 0.00 0.00 10 1008.7
20260507004732 55 0.0 0.0 0.00 0.00 0.00 10 1008.7
20260507003732 55 0.0 0.0 0.00 0.00 0.00 10 1008.4
20260507002732 55 0.0 0.0 0.00 0.00 0.00 10 1008.2
20260507001732 55 0.0 0.0 0.00 0.00 0.00 10 1008.0
20260507000732 56 0.0 0.0 0.00 0.00 0.00 10 1007.8
20260506235732 56 0.0 0.0 0.00 0.00 0.00 10 1007.5
20260506234732 56 0.0 0.0 0.00 0.00 0.00 10 1007.4
20260506233732 56 0.0 0.0 0.00 0.00 0.00 10 1007.3
20260506232732 56 0.0 0.0 0.00 0.00 0.00 10 1007.2
20260506231733 56 0.0 0.0 0.00 0.00 0.00 10 1007.1
20260506230732 56 0.0 0.0 0.00 0.00 0.00 10 1007.1
20260506225733 56 0.0 0.0 0.00 0.00 0.00 10 1006.7
20260506224733 56 0.0 0.0 0.00 0.00 0.00 10 1006.8
20260506223732 56 0.0 0.0 0.00 0.00 0.00 10 1007.7
20260506222733 56 0.0 0.0 0.00 0.00 0.00 10 1007.8
20260506221733 56 0.0 0.0 0.00 0.00 0.00 10 1008.3
20260506220733 56 0.0 0.0 0.00 0.00 0.00 10 1008.3
20260506215733 57 0.0 0.0 0.00 0.00 0.00 10 1008.7
20260506214733 57 0.0 0.0 0.00 0.00 0.00 10 1007.9
20260506213733 57 0.0 0.0 0.00 0.00 0.00 10 1007.8
20260506212733 57 0.0 0.0 0.00 0.00 0.00 10 1007.3
20260506211733 57 0.0 0.0 0.00 0.00 0.00 10 1006.9
20260506210733 57 0.0 0.0 0.00 0.00 0.00 10 1006.7
20260506205733 57 0.0 0.0 0.00 0.00 0.00 10 1005.9
20260506204733 57 0.0 0.0 0.00 0.00 0.00 10 1006.4
20260506203733 56 0.0 0.0 0.00 0.00 0.00 10 1006.9
20260506202734 57 0.0 0.0 0.00 0.00 0.00 10 1006.9
20260506201734 57 0.0 0.0 0.00 0.00 0.00 10 1006.8
20260506200734 57 0.0 0.0 0.00 0.00 0.00 10 1006.3
20260506195733 57 0.0 0.0 0.00 0.00 0.00 10 1005.9
20260506194733 57 0.0 0.0 0.00 0.00 0.00 10 1005.6
20260506193734 57 0.0 0.0 0.00 0.00 0.00 10 1005.5
20260506192734 57 0.0 0.0 0.00 0.00 0.00 10 1005.5
20260506191734 57 0.0 0.0 0.00 0.00 0.00 10 1005.5
20260506190734 57 0.0 0.0 0.00 0.00 0.00 10 1005.4
20260506185734 57 0.0 0.0 0.00 0.00 0.00 10 1005.4
20260506184734 57 0.0 0.0 0.00 0.00 0.00 10 1005.2
20260506183734 57 0.0 0.0 0.00 0.00 0.00 10 1005.2
20260506182734 58 0.0 0.0 0.00 0.00 0.00 10 1005.3
20260506181734 58 0.0 0.0 0.00 0.00 0.00 10 1005.2
20260506180734 58 0.0 0.0 0.00 0.00 0.00 10 1005.4
20260506175734 58 0.0 0.0 0.00 0.00 0.00 10 1005.4
20260506174734 58 0.0 0.0 0.00 0.00 0.00 10 1005.7
20260506173734 58 0.0 0.0 0.00 0.00 0.00 10 1005.7
20260506172734 58 0.0 0.0 0.00 0.00 0.00 10 1005.9
20260506171734 57 0.0 0.0 0.00 0.00 0.00 10 1006.0
20260506170734 57 0.0 0.0 0.00 0.00 0.00 10 1006.3
20260506165734 58 0.0 0.0 0.00 0.00 0.00 10 1006.5
20260506164734 61 0.0 0.0 0.00 0.00 0.00 97 1006.1
20260506163734 61 0.0 0.0 0.00 0.00 0.00 97 1004.8
20260506162734 62 0.0 0.0 0.00 0.00 0.00 98 1005.0
20260506161734 63 0.0 0.0 0.00 0.00 0.00 97 1005.4
20260506160734 63 0.0 0.0 0.00 0.00 0.00 96 1005.9
20260506155737 64 0.0 0.0 0.00 0.00 0.00 89 1006.1
20260506154733 65 0.0 0.0 0.00 0.00 0.00 90 1005.2
20260506153732 65 0.0 0.0 0.00 0.00 0.00 88 1005.2
20260506152733 65 0.0 0.0 0.00 0.00 0.00 85 1005.3
20260506151733 65 0.0 0.0 0.00 0.00 0.00 81 1005.6
20260506145733 75 0.0 0.0 0.00 0.00 0.00 40 1005.8
20260506144733 77 0.0 0.0 0.00 0.00 0.00 37 1005.4
20260506143733 78 0.0 0.0 0.00 0.00 0.00 38 1005.4
20260506142733 78 0.0 0.0 0.00 0.00 0.00 36 1005.6
20260506141734 79 0.0 0.0 0.00 0.00 0.00 35 1005.6
20260506140733 80 0.0 0.0 0.00 0.00 0.00 36 1005.7
20260506135733 79 0.0 0.0 0.00 0.00 0.00 36 1005.7
20260506134733 77 0.0 0.0 0.00 0.00 0.00 37 1005.9
20260506133733 77 0.0 0.0 0.00 0.00 0.00 37 1006.0
20260506132733 78 0.0 0.0 0.00 0.00 0.00 37 1006.1
20260506131733 78 0.0 0.0 0.00 0.00 0.00 37 1006.4
20260506130733 76 0.0 0.0 0.00 0.00 0.00 40 1006.5
20260506125733 76 0.0 0.0 0.00 0.00 0.00 39 1006.6
20260506124733 74 0.0 0.0 0.00 0.00 0.00 42 1006.7
20260506123733 73 0.0 0.0 0.00 0.00 0.00 44 1007.0
20260506122733 75 0.0 0.0 0.00 0.00 0.00 41 1007.2
20260506121733 74 0.0 0.0 0.00 0.00 0.00 42 1007.2
20260506120733 73 0.0 0.0 0.00 0.00 0.00 42 1007.2
20260506115733 74 0.0 0.0 0.00 0.00 0.00 41 1007.3
20260506114733 76 0.0 0.0 0.00 0.00 0.00 41 1007.4
20260506113733 74 0.0 0.0 0.00 0.00 0.00 43 1007.5
20260506112733 74 0.0 0.0 0.00 0.00 0.00 44 1007.7
20260506111733 73 0.0 0.0 0.00 0.00 0.00 44 1007.7
20260506110733 72 0.0 0.0 0.00 0.00 0.00 49 1007.8
20260506105733 71 0.0 0.0 0.00 0.00 0.00 50 1007.8
20260506104733 71 0.0 0.0 0.00 0.00 0.00 49 1007.9
20260506103733 70 0.0 0.0 0.00 0.00 0.00 51 1007.9
20260506102733 70 0.0 0.0 0.00 0.00 0.00 53 1008.1
20260506101733 69 0.0 0.0 0.00 0.00 0.00 55 1008.1
20260506100733 68 0.0 0.0 0.00 0.00 0.00 53 1008.2
20260506095733 68 0.0 0.0 0.00 0.00 0.00 56 1008.1
20260506094733 68 0.0 0.0 0.00 0.00 0.00 56 1008.2
20260506093733 68 0.0 0.0 0.00 0.00 0.00 57 1008.1
20260506092733 68 0.0 0.0 0.00 0.00 0.00 55 1008.1
20260506091733 66 0.0 0.0 0.00 0.00 0.00 61 1008.0
20260506090733 66 0.0 0.0 0.00 0.00 0.00 60 1008.1
20260506085733 66 0.0 0.0 0.00 0.00 0.00 62 1008.1
20260506084733 65 0.0 0.0 0.00 0.00 0.00 62 1008.1
20260506083733 65 0.0 0.0 0.00 0.00 0.00 66 1008.0
20260506082733 65 0.0 0.0 0.00 0.00 0.00 64 1008.0
20260506081733 64 0.0 0.0 0.00 0.00 0.00 66 1007.9
20260506080733 65 0.0 0.0 0.00 0.00 0.00 65 1008.0
20260506072733 62 0.0 0.0 0.00 0.00 0.00 75 1008.1
20260506071734 62 0.0 0.0 0.00 0.00 0.00 77 1008.1
20260506070734 61 0.0 0.0 0.00 0.00 0.00 79 1008.1
20260506061734 60 0.0 0.0 0.00 0.00 0.00 87 1007.7
20260506060734 59 0.0 0.0 0.00 0.00 0.00 90 1007.8
20260506050734 55 0.0 0.0 0.00 0.00 0.00 10 1007.7
20260506044734 55 0.0 0.0 0.00 0.00 0.00 10 1007.6
20260506043734 55 0.0 0.0 0.00 0.00 0.00 10 1007.9
20260506042734 55 0.0 0.0 0.00 0.00 0.00 10 1007.6
20260506041734 55 0.0 0.0 0.00 0.00 0.00 10 1007.4
20260506040734 55 0.0 0.0 0.00 0.00 0.00 10 1007.3
20260506035737 55 0.0 0.0 0.00 0.00 0.00 10 1007.1